Flag for Germany Weather past 2 weeks in Seevetal, Lower Saxony, Germany

Now
64 °F

Sunny.


Feels Like: 64 °F
Forecast: 50 / 68 °F
Wind: 10 mph from Northeast

Location: Hamburg-Finkenwerder

Current Time: Sep 2, 2014 at 9:43:59 PM

Latest Report: Sep 2, 2014 at 8:20 PM


Visibility: 10 mi

Pressure: 30.24 "Hg

Humidity: 68%

Dew point: 54 °F

Location of SeevetalLocation

Historic Weather in Seevetal — Graph

°F

Seevetal temperature yesterday

Maximum temperature yesterday: 64 °F (at 3:50 PM)
Minimum temperature yesterday: 55 °F (at 5:50 AM)
Average temperature yesterday: 61 °F

Past Weeks' High & Low Weather Summary

 TemperatureHumidityPressure
High75 °F (Aug 28, 4:20 PM)100% (Aug 19, 5:50 AM)30.24 "Hg (Aug 19, 5:50 AM)
Low43 °F (Aug 26, 5:50 AM)31% (Aug 28, 3:20 PM)29.68 "Hg (Aug 19, 4:20 PM)
Average61 °F73%29.92 "Hg
* Reported Aug 19 5:50 AM — Sep 2 8:20 PM, Seevetal, Weather by CustomWeather, © 2014

Note: Actual official high and low records may vary slightly from our data, if they occured in-between our weather recording intervals... More about our weather records

Advertising

Seevetal weather history for previous 24 hours

 ConditionsComfort  
Time TempWeatherWind HumidityBarometerVisibility
8:20 PM
Sep 2
64 °FSunny.10 mph68%30.24 "Hg10 mi
7:50 PM66 °FSunny.12 mph64%30.24 "Hg10 mi
7:20 PM66 °FSunny.9 mph64%30.21 "Hg10 mi
6:50 PM68 °FSunny.10 mph64%30.21 "Hg10 mi
6:20 PM68 °FSunny.13 mph64%30.21 "Hg10 mi
5:50 PM70 °FSunny.9 mph57%30.21 "Hg10 mi
5:20 PM72 °FPassing clouds.7 mph47%30.21 "HgN/A
4:50 PM72 °FPassing clouds.7 mph44%30.21 "HgN/A
4:20 PM72 °FPassing clouds.6 mph50%30.21 "HgN/A
3:50 PM72 °FPassing clouds.6 mph47%30.18 "HgN/A
3:20 PM72 °FPassing clouds.8 mph50%30.18 "HgN/A
2:50 PM72 °FPassing clouds.8 mph50%30.21 "HgN/A
2:20 PM70 °FPassing clouds.7 mph53%30.21 "HgN/A
1:50 PM70 °FPassing clouds.7 mph53%30.18 "HgN/A
1:20 PM68 °FScattered clouds.9 mph60%30.18 "HgN/A
12:50 PM70 °FScattered clouds.8 mph57%30.18 "HgN/A
12:20 PM68 °FScattered clouds.9 mph60%30.18 "HgN/A
11:50 AM66 °FScattered clouds.9 mph68%30.18 "HgN/A
11:20 AM64 °FScattered clouds.10 mph73%30.18 "HgN/A
10:50 AM64 °FPassing clouds.10 mph73%30.18 "HgN/A
10:20 AM64 °FPassing clouds.10 mph68%30.18 "HgN/A
9:50 AM63 °FPassing clouds.9 mph73%30.18 "HgN/A
9:20 AM63 °FScattered clouds.9 mph77%30.15 "HgN/A
8:50 AM61 °FScattered clouds.9 mph88%30.15 "HgN/A
8:20 AM59 °FScattered clouds.8 mph94%30.15 "HgN/A
7:50 AM59 °FBroken clouds.9 mph94%30.15 "HgN/A
7:20 AM59 °FPartly cloudy.10 mph100%30.15 "HgN/A
6:50 AM59 °FPartly cloudy.10 mph100%30.12 "Hg5 mi
6:20 AM61 °FPassing clouds.8 mph94%30.12 "Hg5 mi
5:50 AM61 °FPassing clouds.8 mph94%30.12 "Hg5 mi
Weather by CustomWeather, © 2014

See weather overviewHow to use our weather pages